Wind_Speed
39 37 35 34 40 39 38 39 35 33 30 22 18 17 13 10 6 6 10 12 14 20 20 14 13 17 18 20 24 24 24 23 23 21 18 18 17 14 14 15 14 16 16 19
43 34 34 32 36 34 35 39 40 36 34 26 20 19 16 12 12 7 12 13 16 18 20 15 14 17 19 23 26 25 25 21 21 19 17 16 16 15 15 14 11 10 12 14
44 35 36 35 36 36 37 44 45 43 35 32 25 22 19 15 15 13 12 14 18 22 19 13 17 20 23 27 26 26 24 21 19 18 16 15 14 14 14 13 10 8 8 10
44 38 38 35 33 31 35 43 46 44 39 34 30 28 23 19 17 16 12 13 17 22 20 16 23 25 25 28 27 26 24 20 18 18 15 13 12 11 12 11 9 8 7 7
48 42 38 36 32 29 35 32 39 47 42 34 32 31 30 23 20 14 13 13 15 21 23 19 24 29 31 31 29 27 26 22 20 19 16 13 10 9 7 7 6 6 6 5
49 43 36 37 35 33 23 32 39 46 46 33 41 41 33 31 22 17 16 13 17 20 22 23 31 32 32 29 31 31 29 25 23 19 15 13 11 8 5 3 3 2 2 3
54 49 44 41 40 36 29 29 32 38 46 46 53 43 42 34 27 23 17 12 17 18 24 31 34 32 31 31 31 30 30 26 23 20 17 14 12 10 9 7 6 4 4 3
60 56 52 48 45 44 36 29 27 35 45 57 46 39 46 39 29 24 19 16 17 21 26 29 27 28 27 27 28 30 28 26 24 21 20 17 15 13 13 12 13 12 11 9
66 58 58 56 54 48 39 25 36 29 36 47 49 52 46 39 34 29 25 20 21 24 27 26 28 31 29 28 29 28 26 27 26 24 23 20 17 16 15 15 16 15 15 15
67 66 61 62 59 48 39 43 24 21 26 38 47 55 56 44 38 34 30 27 24 28 26 27 28 30 32 31 31 31 30 29 27 26 24 22 21 19 18 17 16 16 17 17
73 70 66 66 58 51 48 40 35 32 29 32 40 52 59 48 43 37 36 34 30 29 30 29 28 31 33 29 30 32 31 30 30 28 27 26 24 23 21 20 18 17 19 20
81 77 72 65 65 61 58 53 46 35 36 34 36 44 46 52 49 44 42 39 35 31 30 32 28 25 29 33 34 36 36 37 34 31 30 28 27 25 24 23 23 23 24 26
80 80 79 74 71 64 57 55 46 42 38 32 28 30 36 47 52 49 46 45 42 39 33 32 33 34 34 35 34 34 35 35 32 32 32 32 32 30 29 29 30 30 30 33
83 85 81 74 73 71 65 57 50 48 44 38 33 33 28 34 48 54 53 50 46 46 43 39 35 37 39 40 39 38 37 35 35 37 37 36 34 33 34 36 36 35 37 37
89 86 84 85 74 69 65 60 54 53 49 44 44 41 38 31 34 47 56 55 52 50 48 47 44 41 39 38 39 41 39 38 39 39 40 40 39 40 41 42 42 41 41 38
93 89 84 83 79 76 72 63 60 59 53 48 48 46 44 38 35 36 44 55 55 52 52 50 49 48 45 43 41 40 40 41 39 39 39 37 37 38 40 39 40 41 41 41
96 91 87 85 86 84 77 66 63 63 59 52 49 52 53 46 41 39 42 47 55 58 56 53 51 50 50 49 49 48 46 44 45 45 44 44 44 45 45 45 47 47 48 48
98 93 91 91 88 84 74 77 70 69 67 60 56 53 55 51 44 39 36 36 44 50 55 59 58 55 53 53 52 53 50 50 50 49 49 51 51 51 51 52 52 53 53 53
100 98 95 92 87 85 83 78 73 71 70 64 59 56 54 53 50 42 37 38 43 42 44 48 55 55 52 53 56 58 57 55 54 54 55 56 56 56 56 55 56 55 57 58
96 100 97 95 91 88 88 84 80 76 74 71 64 62 59 59 54 52 46 42 39 39 39 41 42 42 43 47 47 46 51 49 47 47 49 49 47 48 48 49 48 48 46 46
91 95 97 98 95 92 91 87 84 83 82 79 72 66 63 60 56 57 53 49 43 40 40 44 42 42 43 39 38 38 36 37 40 36 35 36 35 35 37 39 43 43 43 44
86 89 94 98 98 95 93 90 87 89 80 77 76 70 65 65 61 61 61 56 49 47 42 45 44 42 39 38 38 38 36 39 34 34 36 36 36 36 36 39 41 43 46 48
85 84 88 91 93 96 97 97 92 86 82 81 80 77 71 68 69 65 65 64 59 53 50 50 49 45 45 44 41 40 41 41 41 42 41 40 41 41 41 44 40 45 48 49
87 84 83 86 90 94 96 96 98 94 89 85 85 83 80 77 73 72 70 69 68 63 58 57 56 54 53 51 50 50 48 47 47 47 47 46 47 46 47 47 48 49 51 51
95 90 84 81 84 95 100 101 100 100 97 91 87 85 82 80 77 74 75 74 71 71 69 65 63 62 62 61 59 58 57 57 56 56 55 54 54 53 54 53 52 53 54 57
97 96 90 83 92 92 97 101 102 99 96 95 91 86 84 81 80 78 77 77 77 75 73 72 69 67 65 64 63 62 61 61 61 63 63 63 62 61 60 59 59 58 58 62
Wind_Direction
258 259 258 263 257 254 251 253 250 248 245 243 250 256 259 261 249 213 212 213 203 202 192 198 214 194 178 180 177 173 167 159 153 148 141 138 137 134 121 119 111 101 89 81
257 259 263 256 254 248 240 245 241 238 240 236 242 247 252 241 241 240 228 215 212 206 198 206 212 198 176 179 177 175 172 164 157 152 143 140 140 138 128 120 113 99 87 83
260 262 259 255 250 245 233 228 231 237 231 229 228 237 244 240 248 251 245 207 223 208 200 213 214 184 177 178 178 178 176 171 164 161 151 149 145 143 137 132 127 109 87 88
264 257 255 253 249 245 239 233 229 232 232 230 227 234 241 237 241 248 253 227 216 215 201 208 205 187 171 177 182 183 180 178 172 168 163 160 159 153 146 141 125 112 98 83
245 257 258 254 248 245 241 237 230 229 233 231 231 232 230 232 233 240 221 234 223 229 210 196 204 177 172 182 184 185 183 181 178 177 174 170 171 168 160 142 119 103 82 71
245 250 246 243 244 242 238 237 228 224 226 223 235 232 228 225 221 228 226 238 226 219 201 185 178 171 181 185 189 189 186 189 188 184 183 184 183 186 188 174 133 104 28 19
234 236 234 235 245 247 240 241 231 225 222 215 225 223 227 225 217 214 221 227 232 207 201 181 180 178 183 190 193 192 194 195 197 197 197 203 214 221 230 246 261 265 267 287
235 230 229 230 230 236 238 237 236 225 221 224 224 227 224 223 220 216 207 216 213 198 199 184 184 186 193 197 199 199 200 204 206 210 215 219 228 235 243 252 261 268 272 278
229 229 231 232 228 234 232 225 226 231 224 225 223 227 230 223 219 221 209 209 209 197 195 192 187 193 196 200 205 207 208 211 215 219 225 234 237 242 242 245 256 263 275 284
228 229 226 227 229 229 231 224 228 216 218 218 218 220 226 216 218 219 216 213 209 206 205 207 200 198 203 205 205 209 212 216 220 224 231 239 242 246 249 251 255 259 267 277
227 226 224 227 231 224 223 222 213 204 210 219 225 222 223 215 215 215 216 216 212 211 206 215 208 206 209 212 213 214 215 218 223 227 231 237 241 248 250 255 255 262 272 281
224 221 222 222 227 224 221 219 211 206 200 214 228 230 225 220 213 214 217 219 214 215 213 216 213 212 215 214 213 215 218 221 222 224 229 234 243 249 253 259 263 267 278 285
222 221 222 219 224 224 223 221 211 201 209 218 225 230 225 220 215 216 223 220 216 216 214 217 217 215 213 221 225 224 227 230 232 235 236 238 242 246 252 258 264 271 279 283
221 219 220 218 219 220 220 218 212 204 203 208 215 225 216 221 216 214 218 222 220 219 216 215 219 219 220 220 223 226 228 231 235 239 242 246 250 254 258 263 269 274 275 279
223 221 218 220 219 220 218 215 209 203 199 205 208 222 222 214 215 215 216 222 224 222 220 221 222 223 227 227 229 232 234 236 238 241 245 250 254 256 259 264 270 272 273 276
223 222 218 219 218 216 215 213 209 203 197 198 207 221 231 215 211 206 212 216 219 224 229 228 226 227 228 231 235 237 238 238 242 245 247 251 253 256 261 265 268 271 276 280
222 222 219 218 218 216 214 212 209 202 200 200 206 212 223 229 218 214 214 217 219 221 223 227 232 234 234 236 238 241 241 246 247 250 253 255 258 262 265 268 270 274 278 283
219 221 219 218 217 218 214 214 209 202 202 204 207 209 218 228 229 224 221 227 230 227 225 226 228 231 235 240 243 246 247 248 251 255 259 261 263 265 268 271 274 276 279 284
217 219 220 219 215 215 215 214 210 205 206 209 210 211 214 223 231 229 223 225 217 220 222 225 229 230 234 238 243 246 248 251 253 255 258 261 264 268 271 271 274 278 280 282
218 218 219 220 216 214 215 213 212 209 209 212 212 212 215 217 227 229 226 221 228 224 224 226 225 228 230 234 239 245 251 254 255 257 260 265 267 269 273 277 279 281 280 282
218 218 218 219 219 215 215 211 211 212 210 212 210 214 215 219 220 231 230 228 223 228 227 227 232 233 235 237 240 242 246 247 251 262 265 267 273 281 287 290 291 292 291 289
219 219 218 219 218 216 215 214 212 214 211 213 211 214 218 221 224 229 235 235 233 227 225 234 233 233 239 244 245 248 250 256 260 260 267 272 277 283 288 291 293 294 294 296
222 221 219 218 217 216 216 216 215 214 215 214 213 213 215 220 223 226 233 238 236 235 229 227 231 237 239 241 245 250 254 256 257 259 263 269 274 278 281 283 281 291 292 293
223 222 221 218 217 217 217 217 218 216 216 216 214 215 216 219 223 226 228 233 239 236 232 229 231 235 238 240 243 246 248 253 257 260 262 265 267 272 277 279 281 284 287 289
221 222 222 219 218 218 216 216 217 217 216 216 218 217 218 221 225 227 229 231 234 237 239 236 235 238 242 243 243 246 249 251 255 260 265 268 270 273 276 281 286 288 286 290
218 221 219 218 218 216 215 215 216 218 216 217 217 219 221 223 227 228 230 233 235 238 239 240 241 241 241 243 246 247 250 254 256 258 261 265 269 272 276 281 284 287 286 289
Height
10904 10907 10911 10912 10912 10917 10922 10925 10929 10934 10938 10943 10944 10945 10946 10945 10944 10945 10945 10947 10949 10951 10953 10956 10959 10961 10963 10967 10972 10977 10980 10982 10983 10985 10986 10988 10989 10991 10993 10995 10996 10996 10997 10997
10891 10900 10901 10902 10901 10906 10912 10916 10918 10924 10929 10936 10938 10940 10941 10943 10942 10943 10943 10944 10946 10949 10951 10954 10957 10959 10961 10966 10971 10976 10980 10983 10984 10986 10987 10989 10990 10992 10994 10995 10997 10998 10999 10999
10881 10890 10888 10890 10892 10896 10900 10903 10907 10911 10923 10928 10933 10935 10937 10940 10940 10941 10940 10940 10943 10945 10947 10950 10953 10956 10960 10965 10971 10976 10980 10983 10984 10986 10988 10990 10991 10993 10995 10996 10998 10998 10999 11000
10871 10876 10875 10879 10881 10887 10891 10892 10901 10906 10914 10921 10928 10930 10933 10935 10937 10938 10938 10938 10939 10942 10944 10946 10949 10952 10958 10964 10970 10975 10980 10983 10985 10986 10988 10990 10992 10993 10995 10997 10998 10998 10999 11000
10853 10864 10868 10868 10874 10878 10881 10891 10896 10900 10906 10915 10922 10924 10925 10930 10933 10934 10935 10935 10936 10938 10939 10942 10947 10951 10955 10962 10967 10973 10978 10981 10984 10986 10988 10990 10992 10993 10995 10998 10999 10999 11000 11001
10844 10851 10859 10856 10865 10868 10878 10879 10885 10892 10898 10911 10907 10911 10919 10922 10929 10931 10932 10933 10933 10935 10936 10939 10944 10948 10953 10960 10964 10968 10973 10977 10981 10984 10987 10989 10990 10993 10995 10997 10998 10999 10999 11000
10832 10839 10845 10850 10857 10862 10869 10871 10877 10885 10893 10892 10880 10903 10907 10916 10923 10927 10929 10931 10931 10933 10936 10937 10941 10945 10950 10955 10961 10966 10970 10975 10979 10982 10984 10987 10989 10991 10993 10994 10996 10997 10998 10998
10818 10827 10835 10842 10846 10850 10859 10866 10870 10873 10877 10878 10891 10899 10900 10909 10918 10924 10926 10927 10928 10929 10935 10936 10940 10945 10951 10956 10960 10964 10968 10973 10977 10980 10982 10985 10987 10990 10991 10992 10993 10995 10996 10996
10803 10817 10822 10829 10834 10842 10852 10863 10855 10866 10871 10875 10884 10884 10894 10904 10912 10918 10922 10922 10925 10927 10931 10934 10936 10941 10947 10952 10958 10962 10966 10970 10973 10976 10978 10981 10984 10986 10988 10989 10990 10992 10992 10991
10792 10798 10810 10814 10819 10836 10847 10845 10860 10862 10863 10865 10866 10873 10880 10896 10904 10911 10916 10917 10920 10924 10928 10931 10933 10937 10942 10947 10952 10957 10961 10964 10968 10970 10974 10977 10979 10982 10985 10985 10986 10986 10987 10987
10773 10782 10794 10799 10816 10828 10835 10844 10851 10853 10856 10856 10858 10862 10869 10888 10896 10903 10907 10910 10916 10919 10922 10927 10930 10933 10938 10944 10948 10951 10955 10959 10962 10966 10969 10972 10975 10977 10979 10981 10981 10981 10981 10982
10748 10764 10776 10793 10797 10808 10818 10828 10838 10847 10847 10849 10852 10854 10868 10878 10886 10893 10898 10903 10910 10915 10918 10923 10927 10931 10934 10937 10940 10943 10947 10949 10953 10958 10961 10964 10967 10970 10972 10974 10975 10976 10976 10975
10731 10748 10755 10771 10780 10795 10811 10821 10834 10840 10840 10846 10850 10851 10857 10865 10875 10885 10889 10894 10900 10907 10913 10918 10922 10924 10927 10930 10933 10937 10941 10945 10951 10953 10956 10958 10960 10963 10965 10966 10967 10968 10968 10968
10711 10722 10740 10759 10766 10774 10791 10808 10822 10831 10836 10840 10841 10843 10848 10854 10861 10870 10876 10882 10890 10897 10903 10908 10913 10916 10919 10921 10925 10930 10933 10939 10943 10946 10948 10951 10955 10959 10959 10959 10959 10960 10960 10960
10689 10704 10720 10729 10755 10769 10782 10795 10809 10820 10827 10833 10831 10834 10839 10846 10851 10857 10866 10873 10880 10886 10893 10899 10904 10908 10913 10917 10918 10922 10927 10931 10935 10938 10940 10943 10948 10950 10950 10951 10953 10954 10953 10952
10667 10684 10705 10720 10736 10750 10765 10781 10795 10806 10816 10822 10824 10827 10829 10838 10843 10847 10851 10858 10867 10875 10882 10889 10895 10899 10904 10908 10911 10915 10919 10922 10927 10929 10932 10936 10938 10939 10940 10944 10944 10944 10943 10943
10649 10666 10687 10702 10713 10728 10748 10772 10783 10793 10802 10811 10815 10817 10817 10824 10835 10839 10843 10848 10854 10862 10870 10878 10886 10892 10896 10899 10901 10905 10910 10916 10918 10919 10924 10927 10930 10930 10932 10934 10934 10934 10934 10933
10630 10648 10665 10679 10696 10716 10747 10748 10762 10775 10784 10794 10799 10805 10811 10816 10823 10834 10841 10845 10848 10853 10858 10864 10871 10879 10885 10890 10894 10896 10902 10905 10909 10913 10915 10915 10918 10920 10923 10922 10922 10922 10923 10923
10611 10627 10644 10660 10686 10704 10717 10733 10750 10763 10774 10782 10790 10796 10802 10808 10812 10822 10830 10835 10838 10842 10846 10852 10858 10864 10870 10877 10880 10887 10891 10895 10899 10901 10903 10904 10907 10909 10909 10908 10909 10911 10910 10909
10591 10608 10627 10644 10665 10685 10697 10714 10730 10745 10758 10766 10777 10785 10789 10795 10804 10808 10815 10823 10832 10838 10843 10847 10850 10856 10859 10863 10869 10874 10878 10882 10885 10886 10890 10895 10895 10896 10895 10896 10897 10896 10897 10896
10571 10590 10608 10623 10645 10667 10676 10696 10713 10725 10733 10745 10762 10772 10781 10786 10798 10799 10805 10814 10824 10831 10835 10840 10845 10848 10851 10854 10857 10861 10868 10869 10870 10878 10878 10879 10882 10883 10883 10883 10882 10881 10880 10881
10556 10574 10592 10606 10624 10641 10665 10682 10697 10701 10727 10743 10755 10765 10774 10779 10784 10790 10794 10805 10814 10822 10828 10831 10834 10839 10843 10847 10850 10851 10855 10856 10863 10865 10867 10868 10870 10872 10872 10871 10871 10870 10869 10866
10544 10559 10572 10589 10614 10632 10641 10659 10676 10696 10712 10724 10737 10750 10761 10765 10771 10779 10784 10790 10801 10809 10817 10821 10825 10830 10833 10837 10842 10845 10844 10847 10850 10853 10855 10857 10858 10860 10862 10860 10860 10859 10857 10856
10525 10538 10557 10573 10598 10615 10631 10648 10658 10675 10691 10704 10718 10730 10740 10750 10758 10765 10771 10777 10783 10794 10802 10809 10814 10819 10822 10826 10830 10832 10835 10836 10837 10839 10842 10844 10845 10846 10848 10848 10848 10848 10846 10844
10497 10517 10539 10561 10579 10588 10604 10620 10637 10650 10668 10685 10701 10714 10728 10738 10746 10752 10758 10764 10769 10778 10786 10794 10801 10807 10812 10814 10817 10820 10822 10826 10827 10827 10827 10828 10829 10831 10832 10834 10834 10834 10832 10831
10479 10493 10516 10542 10540 10559 10580 10598 10617 10636 10657 10672 10685 10699 10711 10723 10730 10739 10745 10753 10756 10761 10768 10778 10784 10792 10798 10801 10804 10807 10809 10810 10811 10812 10814 10814 10815 10817 10818 10820 10820 10820 10819 10817